Spokane Felts, WA
on Monday, December 24, 2012

Monday
Previous Day Next Day
Daily Summary
 ActualAverageRecord
Temperature
Mean Temperature °F 29°F  
Max Temperature 36°F 35°F 48°F (2005)
Min Temperature 30°F 23°F 12°F (1998)
Degree Days
Heating Degree Days 32 36  
Month to date heating degree days 645 843  
Since 1 July heating degree days 1918 2417  
Cooling Degree Days 0 0  
Month to date cooling degree days 0 0  
Year to date cooling degree days 509 406  
Moisture
Dew Point 29°F   
Average Humidity 82    
Maximum Humidity 89    
Minimum Humidity 75    
Precipitation
Precipitation 0.27 in 0.08 in 0.27 in (2012)
Month to date precipitation 1.72 2.02  
Year to date precipitation 20.48 17.24  
Wind
Wind Speed 3 mph   
Max Wind Speed 12 mph   
Max Gust Speed 15 mph   
Visibility 5 miles   
Events Snow   

Key: T is trace of precipitation, MM is missing value
Source: NWS Daily Summary
Time(PST)TemperatureDew PointHumidity Pressure Visibility Wind DirectionWind SpeedGust SpeedPrecipitationEvents Conditions
12:02 AM 33.8°F 30.2°F 87% 29.64 in 1.2 miles South 6.9 mph - 0.01 in Snow Light Snow
12:15 AM 33.8°F 30.2°F 87% 29.65 in 2.0 miles SSE 5.8 mph - 0.01 in Snow Light Snow
12:35 AM 33.8°F 30.2°F 87% 29.65 in 1.8 miles SSE 5.8 mph - 0.02 in Snow Light Snow
12:53 AM 33.1°F 30.0°F 89% 29.70 in 1.2 miles Variable 5.8 mph - 0.03 in Snow Light Snow
1:04 AM 33.8°F 30.2°F 87% 29.67 in 1.0 miles Variable 5.8 mph - 0.00 in Snow Light Snow
1:39 AM 33.8°F 28.4°F 81% 29.69 in 1.2 miles Variable 6.9 mph - 0.02 in Snow Light Snow
1:53 AM 33.1°F 28.9°F 85% 29.73 in 1.2 miles Variable 3.5 mph - 0.02 in Snow Light Snow
2:49 AM 32.0°F 28.4°F 87% 29.71 in 1.0 miles East 3.5 mph - 0.01 in Snow Light Snow
2:53 AM 32.0°F 28.9°F 88% 29.75 in 1.0 miles East 3.5 mph - 0.02 in Snow Light Snow
2:56 AM 32.0°F 28.4°F 87% 29.71 in 1.0 miles ESE 3.5 mph - 0.00 in Snow Light Snow
3:15 AM 33.8°F 28.4°F 81% 29.72 in 2.0 miles Variable 4.6 mph - 0.00 in Snow Light Snow
3:19 AM 33.8°F 28.4°F 81% 29.72 in 1.8 miles East 4.6 mph - 0.00 in Snow Light Snow
3:31 AM 33.8°F 28.4°F 81% 29.72 in 2.0 miles East 4.6 mph - 0.01 in Snow Light Snow
3:53 AM 33.1°F 28.9°F 85% 29.75 in 2.5 miles SE 3.5 mph - 0.01 in Snow Light Snow
4:02 AM 33.8°F 28.4°F 81% 29.72 in 4.0 miles Calm Calm - 0.00 in Snow Light Snow
4:23 AM 33.8°F 28.4°F 81% 29.73 in 3.0 miles SE 5.8 mph - 0.01 in Snow Light Snow
4:31 AM 33.8°F 28.4°F 81% 29.73 in 2.5 miles East 3.5 mph - 0.01 in Snow Light Snow
4:51 AM 33.8°F 28.4°F 81% 29.74 in 1.5 miles East 4.6 mph - 0.02 in Snow Light Snow
4:53 AM 33.1°F 28.9°F 85% 29.77 in 1.2 miles ENE 3.5 mph - 0.02 in Snow Light Snow
5:36 AM 32.0°F 28.4°F 87% 29.76 in 1.0 miles ENE 5.8 mph - 0.01 in Snow Light Snow
5:44 AM 32.0°F 28.4°F 87% 29.76 in 0.8 miles East 5.8 mph - 0.01 in Snow Light Snow
5:53 AM 32.0°F 28.9°F 88% 29.80 in 1.0 miles East 5.8 mph - 0.01 in Snow Light Snow
6:53 AM 32.0°F 28.9°F 88% 29.83 in 3.0 miles Calm Calm - 0.01 in Snow Light Snow
7:53 AM 32.0°F 28.9°F 88% 29.86 in 4.0 miles North 3.5 mph - 0.01 in Snow Light Snow
8:00 AM 32.0°F 28.4°F 87% 29.83 in 4.0 miles North 4.6 mph - 0.00 in Snow Light Snow
8:53 AM 33.1°F 28.9°F 85% 29.92 in 4.0 miles NNW 6.9 mph - 0.00 in   Overcast
9:53 AM 33.1°F 30.0°F 89% 29.96 in 8.0 miles Variable 4.6 mph - 0.02 in   Mostly Cloudy
10:53 AM 34.0°F 30.0°F 85% 29.99 in 10.0 miles WSW 3.5 mph - 0.08 in   Mostly Cloudy
11:53 AM 34.0°F 30.0°F 85% 30.01 in 10.0 miles West 5.8 mph - 0.04 in   Overcast
12:53 PM 33.1°F 28.9°F 85% 30.04 in 10.0 miles WSW 4.6 mph - N/A   Mostly Cloudy
1:53 PM 35.1°F 30.0°F 82% 30.06 in 10.0 miles Calm Calm - N/A   Mostly Cloudy
2:53 PM 36.0°F 28.9°F 76% 30.09 in 10.0 miles Calm Calm - N/A   Overcast
3:53 PM 34.0°F 28.0°F 79% 30.12 in 10.0 miles WSW 6.9 mph - N/A   Overcast
4:53 PM 33.1°F 28.9°F 85% 30.15 in 10.0 miles West 3.5 mph - N/A   Overcast
5:53 PM 33.1°F 28.0°F 82% 30.16 in 10.0 miles Calm Calm - N/A   Overcast
6:53 PM 33.1°F 28.0°F 82% 30.17 in 10.0 miles Calm Calm - N/A   Overcast
7:53 PM 30.9°F 26.1°F 82% 30.17 in 10.0 miles WSW 4.6 mph - N/A   Mostly Cloudy
8:05 PM 30.2°F 26.6°F 86% 30.12 in 10.0 miles WSW 3.5 mph - N/A   Partly Cloudy
8:31 PM 30.2°F 26.6°F 86% 30.13 in 10.0 miles Calm Calm - N/A   Mostly Cloudy
8:39 PM 30.2°F 26.6°F 86% 30.13 in 10.0 miles Calm Calm - N/A   Overcast
8:53 PM 32.0°F 28.0°F 85% 30.18 in 10.0 miles Calm Calm - N/A   Overcast
9:53 PM 32.0°F 28.0°F 85% 30.19 in 10.0 miles Calm Calm - N/A   Overcast
10:53 PM 32.0°F 28.0°F 85% 30.20 in 10.0 miles North 4.6 mph - N/A   Overcast
11:14 PM 32.0°F 28.4°F 87% 30.15 in 10.0 miles Calm Calm - N/A   Overcast
11:30 PM 32.0°F 28.4°F 87% 30.15 in 10.0 miles Calm Calm - N/A   Overcast
11:53 PM 32.0°F 28.0°F 85% 30.20 in 9.0 miles Calm Calm - 0.00 in   Overcast
Moon Phase
Dec. 24 Dec. 28 Jan. 04 Jan. 11 Jan. 18
Sunrise:07:36 AM (PST) Moon Rise:01:37 PM (PST)12/24
Sunset:04:01 PM (PST) Moon Set:04:13 AM (PST)12/24

Copyright © 2014 The Weather Underground, Inc.